DW9729 Crofton MD US current weather conditions

sailwx.info

Wind from 356

Air temperature 7.8° C
Dewpoint 7.0° C

Last reported at 2020-Jan-25 13:00 UTC.
Time now 2020-Jan-25 13:44 UTC

Location: N 39°01' W 076°42'.
View on Google Maps.

See reports from other nearby stations

  
Tides and Currents Weather Stations Pressure Air Temp Water Temp Dewpoint Dewpoint Depression Visibility Wind Speed Wind Dir Waves Ship Positions
date/time (UTC)wind fromknots sea level pressurealtimeterstation pressurevisibilityair tempwater tempwave heightnotes
2020-Jan-25 13:00 356 7.8
2020-Jan-25 12:46 315 0 gusting 6 8.3
2020-Jan-25 12:31 346 0 gusting 3 8.3
2020-Jan-25 12:16 020 1 gusting 5 8.3
2020-Jan-25 12:00 357 1 gusting 5 8.3
2020-Jan-25 11:45 021 1 gusting 6 8.3
2020-Jan-25 11:30 006 1 gusting 4 8.3
2020-Jan-25 11:15 004 0 gusting 3 8.3
2020-Jan-25 11:00 024 0 gusting 3 8.3
2020-Jan-25 10:45 038 8.3
2020-Jan-25 10:30 355 0 gusting 2 8.3
2020-Jan-25 10:16 353 8.3
2020-Jan-25 10:00 297 8.3
2020-Jan-25 09:45 311 8.3
2020-Jan-25 09:30 001 8.3
2020-Jan-25 09:16 317 8.3
2020-Jan-25 09:02 283 8.3
2020-Jan-25 08:47 238 8.3
2020-Jan-25 08:31 317 8.9
2020-Jan-25 08:17 208 8.9
2020-Jan-25 08:01 245 0 gusting 3 8.9
2020-Jan-25 07:47 217 8.9
2020-Jan-25 07:32 302 8.9
2020-Jan-25 07:17 272 8.3
2020-Jan-25 07:02 299 8.3
2020-Jan-25 06:46 302 8.3
2020-Jan-25 06:32 213 8.3
2020-Jan-25 06:15 226 8.3
2020-Jan-25 06:02 330 8.3
2020-Jan-25 05:46 299 8.9
2020-Jan-25 05:31 297 8.9
2020-Jan-25 05:15 227 8.9
2020-Jan-25 05:01 198 8.9
2020-Jan-25 04:45 278 8.9
2020-Jan-25 04:31 248 8.9
2020-Jan-25 04:15 340 8.3
2020-Jan-25 04:01 236 8.3
2020-Jan-25 03:45 262 8.3
2020-Jan-25 03:30 278 8.3
2020-Jan-25 03:15 288 8.3
2020-Jan-25 03:00 325 8.3
2020-Jan-25 02:45 308 8.3
2020-Jan-25 02:33 307 8.3
2020-Jan-25 02:18 318 8.3
2020-Jan-25 02:01 292 8.3
2020-Jan-25 01:50 228 8.3
2020-Jan-25 01:31 278 8.3
2020-Jan-25 01:17 251 8.3
2020-Jan-25 01:01 333 8.9
2020-Jan-25 00:48 170 8.9
2020-Jan-25 00:33 323 8.9
2020-Jan-25 00:16 319 8.9
2020-Jan-25 00:01 336 9.4
2020-Jan-24 23:46 305 9.4
2020-Jan-24 23:31 237 9.4
2020-Jan-24 23:17 211 10.0
2020-Jan-24 23:01 295 10.0
2020-Jan-24 22:46 320 10.0
2020-Jan-24 22:31 278 10.0
2020-Jan-24 22:16 283 10.6
2020-Jan-24 22:01 269 10.6
2020-Jan-24 21:47 332 10.6
2020-Jan-24 21:32 288 10.6
2020-Jan-24 21:16 288 10.6
2020-Jan-24 21:01 341 10.6
2020-Jan-24 20:30 329 10.6
2020-Jan-24 20:15 288 10.0
2020-Jan-24 20:00 194 10.0
2020-Jan-24 19:46 228 9.4
2020-Jan-24 19:31 310 9.4
2020-Jan-24 19:16 001 9.4
2020-Jan-24 19:00 349 10.0
2020-Jan-24 18:45 346 0 gusting 2 10.0
2020-Jan-24 18:30 002 9.4
2020-Jan-24 18:15 307 9.4
2020-Jan-24 18:00 350 9.4
2020-Jan-24 17:45 202 1 gusting 3 8.9
2020-Jan-24 17:33 342 8.9
2020-Jan-24 17:17 208 8.9
2020-Jan-24 17:02 348 8.9
2020-Jan-24 16:46 205 1 gusting 6 8.3
2020-Jan-24 16:32 342 7.8
2020-Jan-24 16:16 288 7.8
2020-Jan-24 16:02 313 7.2
2020-Jan-24 15:46 340 6.7
2020-Jan-24 15:31 349 6.1
2020-Jan-24 15:16 348 5.0
2020-Jan-24 15:01 332 4.4
2020-Jan-24 14:45 327 3.9
2020-Jan-24 14:30 327 3.3
2020-Jan-24 14:15 305 2.8
2020-Jan-24 14:00 243 2.2
2020-Jan-24 13:45 242 1.7
2020-Jan-24 13:30 240 1.1
2020-Jan-24 13:19 227 1.1
2020-Jan-24 13:03 227 0.6
2020-Jan-24 12:46 227 0.6
2020-Jan-24 12:31 227 0.6
2020-Jan-24 12:17 227 0.6
2020-Jan-24 12:01 227 0.6
2020-Jan-24 11:47 224 0.6
2020-Jan-24 11:31 209 0.6
2020-Jan-24 11:17 208 0.6
2020-Jan-24 11:01 208 -0.0
2020-Jan-24 10:46 207 -0.6
2020-Jan-24 10:32 207 -0.6
2020-Jan-24 10:17 207 -0.6
2020-Jan-24 10:02 207 -0.6
2020-Jan-24 09:46 207 -0.6
2020-Jan-24 09:31 207 -0.0
2020-Jan-24 09:16 207 -0.0
2020-Jan-24 09:01 207 -0.0
2020-Jan-24 08:47 207 -0.6
2020-Jan-24 08:33 207 -0.0
2020-Jan-24 08:17 207 -0.0
2020-Jan-24 08:01 207 -0.0
2020-Jan-24 07:31 207 -0.0
2020-Jan-24 07:16 207 -0.6
2020-Jan-24 07:01 207 -0.6
2020-Jan-24 06:46 207 -0.6
2020-Jan-24 06:31 207 -0.6
2020-Jan-24 06:15 207 -0.6
2020-Jan-24 06:01 207 -0.6
2020-Jan-24 05:45 207 -0.6
2020-Jan-24 05:31 207 -0.6
2020-Jan-24 05:17 207 -0.6
2020-Jan-24 05:00 207 -0.0
2020-Jan-24 04:45 207 -0.6
2020-Jan-24 04:30 207 -0.0
2020-Jan-24 04:15 207 -0.0
2020-Jan-24 04:00 207 -0.0
2020-Jan-24 03:45 207 0.6
2020-Jan-24 03:30 207 0.6
2020-Jan-24 03:15 207 1.1
2020-Jan-24 03:00 207 1.1
2020-Jan-24 02:45 207 1.1
2020-Jan-24 02:30 207 1.7
2020-Jan-24 02:15 207 1.7
2020-Jan-24 02:00 207 1.7
2020-Jan-24 01:45 207 1.7
2020-Jan-24 01:30 207 1.7
2020-Jan-24 01:15 207 2.2
2020-Jan-24 01:00 207 2.2
2020-Jan-24 00:45 207 2.2
2020-Jan-24 00:30 207 2.2
2020-Jan-24 00:15 207 2.8
2020-Jan-24 00:02 207 2.2
2020-Jan-23 23:46 207 2.8
2020-Jan-23 23:32 207 3.3
2020-Jan-23 23:18 207 3.3
2020-Jan-23 23:04 207 3.3
2020-Jan-23 22:46 207 3.9
2020-Jan-23 22:32 207 3.9
2020-Jan-23 22:18 207 3.9
2020-Jan-23 22:02 207 4.4
2020-Jan-23 21:46 207 5.0
2020-Jan-23 21:32 205 5.6
2020-Jan-23 21:17 205 5.6
2020-Jan-23 21:02 208 5.6
2020-Jan-23 20:47 208 5.6
2020-Jan-23 20:31 208 5.6
2020-Jan-23 20:17 226 5.6
2020-Jan-23 20:02 226 5.6
2020-Jan-23 19:46 226 5.6
2020-Jan-23 19:32 226 5.0
2020-Jan-23 19:16 226 5.0
2020-Jan-23 19:02 303 5.6
2020-Jan-23 18:47 247 5.0
2020-Jan-23 18:32 248 5.0
2020-Jan-23 18:16 268 5.0
2020-Jan-23 18:01 249 5.0
2020-Jan-23 17:45 248 0 gusting 2 5.0
2020-Jan-23 17:31 339 5.0
2020-Jan-23 17:17 335 4.4
2020-Jan-23 17:00 340 4.4
2020-Jan-23 16:46 341 3.9
2020-Jan-23 16:30 326 3.3
2020-Jan-23 16:15 327 2.8
2020-Jan-23 16:00 324 2.8
2020-Jan-23 15:45 324 2.2
2020-Jan-23 15:30 324 1.7
2020-Jan-23 15:17 324 1.1
2020-Jan-23 15:02 324 0.6
2020-Jan-23 14:46 324 -0.6
2020-Jan-23 14:31 324 -1.7
2020-Jan-23 14:16 324 -2.2
2020-Jan-23 14:01 324 -2.8
2020-Jan-23 13:46 324 -3.3
2020-Jan-23 13:31 324 -3.9
2020-Jan-23 13:15 324 -4.4
2020-Jan-23 13:00 324 -5.0